Location: Follona
(44.8667°N, 10.8167°E)
Time: 05:41:26
(UTC+00:00)

Daily predictions for brighter satellites

Satellite Brightness Start Highest point End
(mag) Time Altitude Azimuth Time Altitude Azimuth Time Altitude Azimuth
USA 234 4.5 01:52:59 10° NE 01:56:38 35° NE 01:56:38 35° NE
Lacrosse 4 Rocket 4.1 02:36:55 16° ENE 02:36:55 16° ENE 02:37:56 10° NE
NOSS 3-2 (C) 3.9 02:38:52 55° ENE 02:38:52 55° ENE 02:44:04 10° NE
Cosmos 2344 3.4 02:47:18 81° NW 02:47:18 81° NW 02:55:17 10° NE
CENTAUR R/B 2.6 02:49:21 73° E 02:49:21 73° E 02:55:52 10° NE
COSMOS 2406 4.3 02:49:39 36° SE 02:50:53 41° ESE 02:56:10 10° NE
Cosmos 1697 Rocket 4.1 02:49:21 17° N 02:53:05 35° NE 02:58:15 10° ESE
Lacrosse 5 rocket 3.8 02:55:14 18° E 02:55:14 18° E 02:56:35 10° ENE
CZ-3B R/B 4.0 02:59:50 44° NW 03:02:29 72° NE 03:32:56 10° ESE
Cosmos 2279 Rocket 3.8 03:08:48 10° N 03:15:01 82° W 03:21:12 10° S
Cosmos 1980 Rocket 3.9 03:10:23 10° N 03:15:15 29° NE 03:20:05 10° ESE
CZ-2C R/B 2.5 03:12:54 10° NNE 03:17:55 73° ESE 03:18:23 67° SSE
ISS -1.5 03:21:42 26° E 03:21:42 26° E 03:23:30 10° ENE
USA 238 DEB 3.8 03:24:05 51° NW 03:24:27 51° NW 03:31:13 10° NNE
USA 238 3.8 03:24:10 51° NW 03:24:34 52° NW 03:31:19 10° NNE
ERS-2 3.1 03:22:38 10° SE 03:26:05 45° ENE 03:26:05 45° ENE
NOSS 3-2 (A) 3.9 03:28:10 42° NW 03:28:10 42° NW 03:34:27 10° NNE
MSX 4.4 03:25:13 10° N 03:29:27 40° NW 03:29:27 40° NW
PAYLOAD A 3.9 03:28:13 10° N 03:33:20 73° WNW 03:34:02 63° SW
ATLAS 3B R/B 3.2 03:30:01 11° SSW 03:36:07 53° ESE 03:42:31 10° NE
Cosmos 1302 Rocket 3.9 03:37:27 50° NW 03:38:47 71° WSW 03:44:01 10° S
ADEOS 4.2 03:34:54 10° NNE 03:40:03 55° E 03:45:10 10° S
USA 234 4.2 03:36:00 10° NE 03:41:43 33° N 03:43:58 27° NW
Cosmos 1269 Rocket 4.0 03:42:33 56° W 03:42:55 57° WNW 03:48:11 10° NNE
Geosat 3.9 03:39:34 10° SSE 03:44:35 85° ENE 03:48:27 18° NNW
SL-14 R/B 4.1 03:44:08 10° S 03:48:00 53° E 03:51:55 10° NNE
ADEOS Rocket 2.8 03:44:45 10° S 03:50:06 53° W 03:55:33 10° NNW
IDEFIX/ARIANE 42P 4.5 03:46:24 10° NNW 03:47:43 15° NNW 03:47:43 15° NNW
Cosmos 1300 3.8 03:47:10 10° N 03:50:51 44° ENE 03:54:31 10° SSE
PSLV R/B 4.0 03:47:29 10° N 03:50:53 44° NW 03:50:53 44° NW
In-Cosmos 22 4.4 03:52:37 41° WNW 03:52:37 41° WNW 03:57:35 10° N
Cosmos 1833 Rocket 2.6 03:48:51 22° SSW 03:52:36 85° WNW 03:58:18 10° NNE
Cosmos 1461 3.4 03:51:12 25° SSW 03:53:44 68° ESE 03:58:25 10° NE
Cosmos 1626 1.9 03:59:25 16° S 04:02:18 83° WNW 04:06:01 10° N
Meteor 1-24 Rocket 4.0 03:59:29 10° S 04:05:02 71° E 04:10:52 10° NNE
METEOR-M 4.3 04:01:53 10° NNE 04:07:15 75° ESE 04:12:34 10° S
Cosmos 2369 3.6 04:01:41 10° NNW 04:07:23 79° WSW 04:13:00 10° SSE
Cosmos 1484 Rocket 2.6 04:03:42 10° N 04:07:35 84° WNW 04:11:23 10° SSW
Cosmos 44 Rocket 4.0 04:11:06 32° W 04:11:59 35° WSW 04:16:39 10° S
Lacrosse 4 Rocket 2.3 04:13:16 28° NW 04:13:16 28° NW 04:16:35 10° N
Cosmos 2082 Rocket 2.2 04:07:43 10° SSW 04:13:19 82° ESE 04:18:58 10° NNE
Cosmos 1656 4.3 04:13:21 28° WNW 04:14:56 32° WSW 04:19:56 10° SSW
deb Kosmos-1763 3.9 04:14:51 27° SW 04:16:40 64° WNW 04:20:14 10° NNE
ARGOS Delta rocket 4.3 04:11:25 10° NNE 04:16:51 76° E 04:22:20 10° S
CZ-4B R/B 1.5 04:14:14 10° S 04:17:38 52° W 04:20:13 16° NNW
Cosmos 1992 Rocket 3.9 04:13:15 10° NNW 04:18:29 78° WSW 04:23:40 10° SSE
Cosmos 967 Rocket 4.4 04:13:30 10° NW 04:19:48 75° WSW 04:26:02 10° SSE
Cosmos 1092 Rocket 3.9 04:14:54 10° S 04:21:04 85° W 04:27:20 10° N
SL-16 R/B 4.0 04:16:59 10° N 04:21:57 30° NE 04:26:53 10° ESE
Cosmos 1726 Rocket 3.5 04:19:29 10° NNW 04:23:56 78° W 04:28:23 10° S
CZ-4B R/B 3.4 04:21:47 10° NNE 04:25:48 64° ESE 04:29:59 10° S
Abrixas rocket 1.8 04:25:26 41° WNW 04:26:15 75° NNE 04:29:06 10° ESE
Nadezhda 4 Rocket 4.1 04:20:37 10° SSW 04:26:30 48° WNW 04:32:27 10° N
Meteor PRIRODA 4.4 04:23:31 10° NNE 04:27:06 54° E 04:30:42 10° S
CZ-3 R/B 3.9 04:09:44 13° WSW 04:27:52 35° SSW 04:34:57 10° SE
Meteor 2-13 Rocket 4.4 04:22:23 10° SSW 04:28:29 67° W 04:34:37 10° N
NOSS 3-2 (C) 4.4 04:26:20 22° WNW 04:29:11 31° NNW 04:35:07 10° NNE
Meteor 1-31 Rocket 2.8 04:28:04 10° N 04:31:58 60° WNW 04:35:49 10° SSW
Lacrosse 5 rocket 1.5 04:30:54 27° W 04:32:25 42° NNW 04:36:04 10° NE
Meteor 2-5 Rocket 3.8 04:26:58 10° SSW 04:32:32 55° WNW 04:38:16 10° N
Cosmos 2228 3.3 04:28:49 10° NNW 04:32:59 45° W 04:37:09 10° SSW
Intercosmos 24 4.1 04:29:58 10° NNW 04:33:32 37° W 04:36:50 10° SSW
COSMOS 2406 3.9 04:31:47 18° WSW 04:35:16 34° NW 04:40:24 10° N
ALOS 2.5 04:31:11 10° N 04:35:40 47° WNW 04:40:08 10° SW
Cosmos 1697 Rocket 3.1 04:31:51 10° NW 04:37:05 39° WSW 04:42:17 10° S
Cosmos 1606 Rocket 3.9 04:35:05 10° NNW 04:39:19 42° W 04:43:31 10° SSW
Cosmos 1455 4.1 04:36:06 10° N 04:39:39 33° ENE 04:43:10 10° SE
CENTAUR R/B 3.6 04:36:34 18° W 04:40:22 31° NNW 04:46:46 10° NNE
Cosmos 1689 Rocket 2.0 04:39:40 10° S 04:42:33 60° WSW 04:45:28 10° NNW
ATLAS CENTAUR R/B 4.1 04:39:50 10° SSE 04:42:43 20° ESE 04:45:32 10° ENE
Cosmos 2251 Rocket 3.6 04:38:43 10° SW 04:44:00 60° WNW 04:49:18 10° NNE
Cosmos 614 Rocket 4.2 04:40:52 10° SSW 04:46:00 76° ESE 04:51:08 10° NNE
COSMO-SKYMED 1 2.6 04:42:37 10° S 04:46:55 61° W 04:51:14 10° NNW
Cosmos 2360 Rocket 4.3 04:43:14 10° N 04:47:38 23° NE 04:52:01 10° E
FENGYUN 3A 4.0 04:42:43 10° N 04:47:49 42° WNW 04:52:53 10° SW
CZ-2C R/B 3.9 04:52:32 10° NNW 04:55:30 16° WNW 04:57:45 12° W
ISS -3.1 04:54:40 15° W 04:57:07 40° NNW 05:00:19 10° NE
USA 290 3.1 04:54:17 10° SW 04:57:09 29° WNW 05:00:03 10° N
Cosmos 1980 Rocket 2.4 04:54:07 10° NW 04:59:28 48° WSW 05:04:49 10° S
ERS-2 3.9 04:58:08 10° WSW 04:59:54 13° W 05:00:40 12° W
Cosmos 2292 Rocket 4.2 04:58:50 10° SSE 05:01:47 45° E 05:05:17 10° NNE
Cosmos 1400 Rocket 3.5 04:59:18 10° NNW 05:02:50 32° W 05:06:18 10° SSW
Meteor 2-8 Rocket 4.5 04:57:53 10° NNW 05:03:59 66° W 05:10:04 10° S
Okean 1-7 Rocket 3.9 05:04:15 10° SSW 05:08:38 47° WNW 05:13:02 10° N
Cosmos 2058 Rocket 3.6 05:07:19 10° NNW 05:11:30 38° W 05:15:39 10° SSW
Cosmos 1553 Rocket 3.9 05:06:52 10° NNW 05:12:59 72° W 05:19:00 10° S
CREW DRAGON DEMO-1 DEB 3.2 05:12:04 10° NW 05:15:03 58° NNE 05:18:02 10° ESE
Cosmos 2098 Rocket 3.7 05:09:16 10° S 05:15:30 86° W 05:20:28 10° N
Cosmos 2084 3.7 05:12:20 10° SW 05:16:34 52° NW 05:20:54 10° NNE
TELKOM 3 4.4 05:15:13 10° W 05:18:31 50° NNW 05:22:36 10° ENE
Aureole 3 4.4 05:15:02 10° NNW 05:18:47 32° W 05:23:22 10° SSW
H-2A R/B 2.6 05:15:17 10° NNE 05:19:42 88° E 05:23:57 10° SSW
BREEZE-M DEB (TANK) 4.5 05:08:25 10° W 05:24:22 65° NNW 05:28:28 10° ENE
